Location: Mapua
(41.2500°S, 173.1000°E)
Time: 17:27:36
(UTC+12:00)

OTV 5 (USA 277) - Visible Passes

Search period start: 23 May 2018 00:00
Search period end: 02 June 2018 00:00
Orbit: 308 x 326 km, 54.5° (Epoch: 06 May)

Date Brightness Start Highest point End Pass type
(mag) Time Alt. Az. Time Alt. Az. Time Alt. Az.
23 May ? 18:51:38 10° NW 18:53:54 57° NNW 18:53:54 57° NNW visible
24 May ? 19:06:15 10° WNW 19:08:09 30° WSW 19:08:09 30° WSW visible
25 May ? 17:46:21 10° NNW 17:48:56 42° NE 17:51:26 11° ESE visible
25 May ? 19:21:29 10° WSW 19:22:19 14° WSW 19:22:19 14° WSW visible
26 May ? 18:00:38 10° WNW 18:03:19 59° SW 18:05:31 14° SE visible
27 May ? 18:15:33 10° W 18:17:51 24° SSW 18:19:33 14° SSE visible
28 May ? 18:31:05 10° SW 18:32:31 13° SSW 18:33:31 11° S visible
31 May ? 17:41:05 10° SSW 17:41:39 10° SSW 17:42:12 10° S visible
